Agostonmajor, Hungary

12:56 PM CEST on August 24, 2017 (GMT +0200)
Agostonmajor

Weather History for 12970 - February, 2014

Change the Weather History Date:

Thursday, February 13, 2014

  Actual Average Record
Temperature  
Mean Temperature 42 °F -  
Max Temperature 52 °F - - ()
Min Temperature 33 °F - - ()
Degree Days  
Heating Degree Days 22    
Moisture  
Dew Point 31 °F    
Average Humidity 65    
Maximum Humidity 87    
Minimum Humidity 33    
Precipitation  
Precipitation 0.00 in - - ()
Sea Level Pressure  
Sea Level Pressure 29.80 in    
Wind  
Wind Speed 10 mph ()    
Max Wind Speed 16 mph    
Max Gust Speed -    
Visibility 9.6 miles    
Events      
T = Trace of Precipitation, MM = Missing Value Source: Averaged Metar Reports

Daily Weather History Graph

Daily Weather History Graph

Search for Another Location

Airport or City:

Trip Planner

Search our weather history database for the weather conditions in past years. The results will help you decide how hot, cold, wet, or windy it might be!

Date:

Astronomy

Feb. 13, 2014 Rise Set
Actual Time 6:48 AM CET 5:02 PM CET
Civil Twilight 6:17 AM CET 5:33 PM CET
Nautical Twilight 5:41 AM CET 6:09 PM CET
Astronomical Twilight 5:06 AM CET 6:44 PM CET
Moon 3:53 PM CET (2/13) 5:33 AM CET (2/13)
Length of Visible Light 11h 16m
Length of Day
10h 13m
Waxing Gibbous, 98% of the Moon is Illuminated
Feb 13
Waxing Gibbous
Feb 15
Full
Feb 22
Last Quarter
Mar 1
New
Mar 8
First Quarter

Hourly Weather History & Observations

Time (CET) Temp. Windchill Dew Point Humidity Pressure Visibility Wind Dir Wind Speed Gust Speed Precip Events Conditions
12:00 AM 39 °F - 31 °F 65% 29.79 in 9 mi West 8.9 mph - -   Mostly Cloudy
12:15 AM 39.2 °F 32.2 °F 32.0 °F 75% 29.77 in 6.2 mi West 11.2 mph - N/A   Mostly Cloudy
12:45 AM 39.2 °F 32.2 °F 32.0 °F 75% 29.77 in 6.2 mi West 11.2 mph - N/A   Mostly Cloudy
1:00 AM 39 °F - 31 °F 65% 29.81 in 12 mi West 11.2 mph - -   Mostly Cloudy
1:15 AM 39.2 °F 32.2 °F 32.0 °F 75% 29.80 in 6.2 mi West 11.2 mph - N/A   Overcast
1:45 AM 39.2 °F 31.3 °F 30.2 °F 70% 29.80 in 6.2 mi West 13.4 mph - N/A   Mostly Cloudy
2:00 AM 39 °F - 31 °F 63% 29.81 in 12 mi West 13.4 mph - -   Mostly Cloudy
2:15 AM 39.2 °F 31.3 °F 30.2 °F 70% 29.80 in 6.2 mi West 13.4 mph - N/A   Mostly Cloudy
2:45 AM 37.4 °F 28.3 °F 30.2 °F 75% 29.77 in 6.2 mi West 15.7 mph - N/A   Mostly Cloudy
3:00 AM 37 °F - 31 °F 69% 29.81 in 12 mi West 15.7 mph - -   Mostly Cloudy
3:15 AM 37.4 °F 29.1 °F 30.2 °F 75% 29.77 in - West 13.4 mph - N/A   Clear
3:45 AM 37.4 °F 28.3 °F 30.2 °F 75% 29.77 in - West 15.7 mph - N/A   Clear
4:00 AM 36 °F - 30 °F 73% 29.81 in 12 mi West 15.7 mph - -   Partly Cloudy
4:15 AM 35.6 °F 27.7 °F 30.2 °F 81% 29.80 in - West 11.2 mph - N/A   Clear
4:45 AM 35.6 °F 27.7 °F 30.2 °F 81% 29.80 in - West 11.2 mph - N/A   Clear
5:00 AM 36 °F - 30 °F 71% 29.83 in 12 mi West 11.2 mph - -   Clear
5:15 AM 35.6 °F 27.7 °F 30.2 °F 81% 29.80 in - West 11.2 mph - N/A   Clear
5:45 AM - - - N/A% - - WSW 8.9 mph - N/A   Clear
6:00 AM 36 °F - 29 °F 69% 29.84 in 9 mi West 13.4 mph - -   Clear
6:15 AM 35.6 °F 27.7 °F 30.2 °F 81% 29.83 in - West 11.2 mph - N/A   Clear
6:45 AM 33.8 °F 25.4 °F 30.2 °F 87% 29.83 in - West 11.2 mph - N/A   Clear
7:00 AM 35 °F - 29 °F 72% 29.86 in 9 mi West 11.2 mph - -   Scattered Clouds
7:15 AM 33.8 °F 25.4 °F 28.4 °F 81% 29.83 in - West 11.2 mph - N/A   Clear
7:45 AM 33.8 °F 25.4 °F 30.2 °F 87% 29.86 in - WSW 11.2 mph - N/A   Clear
8:00 AM 34 °F - 30 °F 78% 29.88 in 9 mi WSW 11.2 mph - -   Scattered Clouds
8:15 AM 35.6 °F 28.7 °F 30.2 °F 81% 29.86 in - WSW 8.9 mph - N/A   Clear
8:45 AM - - - N/A% - - WSW 11.2 mph - N/A   Clear
9:00 AM 38 °F - 31 °F 66% 29.88 in 12 mi West 11.2 mph - -   Scattered Clouds
9:15 AM 41.0 °F 34.4 °F 30.2 °F 65% 29.86 in - West 11.2 mph - N/A   Clear
9:45 AM 41.0 °F 34.4 °F 30.2 °F 65% 29.86 in - West 11.2 mph - N/A   Clear
10:00 AM 41 °F - 31 °F 56% 29.89 in 16 mi West 11.2 mph - -   Scattered Clouds
10:15 AM 42.8 °F 37.6 °F 32.0 °F 66% 29.86 in - West 8.9 mph - N/A   Clear
10:45 AM 46.4 °F 42.0 °F 32.0 °F 57% 29.86 in - West 8.9 mph - N/A   Clear
11:00 AM 46 °F - 31 °F 44% 29.88 in 19 mi West 8.9 mph - -   Scattered Clouds
11:15 AM 48.2 °F - 30.2 °F 50% 29.86 in - West 11.2 mph - N/A   Clear
11:45 AM 48.2 °F - 32.0 °F 54% 29.83 in 6.2 mi WSW 11.2 mph - N/A   Partly Cloudy
12:00 PM 47 °F - 31 °F 43% 29.85 in 22 mi WSW 11.2 mph - -   Scattered Clouds
12:15 PM 48.2 °F - 32.0 °F 54% 29.80 in 6.2 mi WSW 11.2 mph - N/A   Partly Cloudy
12:45 PM 48.2 °F - 30.2 °F 50% 29.80 in 6.2 mi SW 11.2 mph - N/A   Partly Cloudy
1:00 PM 49 °F - 30 °F 36% 29.83 in 22 mi SW 11.2 mph - -   Scattered Clouds
1:15 PM 50.0 °F - 30.2 °F 47% 29.80 in 6.2 mi SW 8.9 mph - N/A   Partly Cloudy
1:45 PM 50.0 °F - 30.2 °F 47% 29.80 in 6.2 mi SW 8.9 mph - N/A   Partly Cloudy
2:00 PM 50 °F - 30 °F 33% 29.81 in 22 mi SW 8.9 mph - -   Scattered Clouds
2:15 PM 50.0 °F - 30.2 °F 47% 29.80 in 6.2 mi WSW 11.2 mph - N/A   Scattered Clouds
2:45 PM - - - N/A% - 6.2 mi SSW 8.9 mph - N/A   Clear
3:00 PM 51 °F - 32 °F 35% 29.80 in 22 mi SW 8.9 mph - -   Partly Cloudy
3:15 PM 50.0 °F - 32.0 °F 50% 29.77 in 6.2 mi SSW 8.9 mph - N/A   Scattered Clouds
3:45 PM 50.0 °F - 33.8 °F 54% 29.77 in 6.2 mi SSW 6.7 mph - N/A   Scattered Clouds
4:00 PM 49 °F - 33 °F 42% 29.79 in 19 mi SSW 6.7 mph - -   Partly Cloudy
4:15 PM 50.0 °F - 33.8 °F 54% 29.77 in 6.2 mi SSW 6.7 mph - N/A   Scattered Clouds
4:45 PM 48.2 °F - 33.8 °F 58% 29.77 in - South 6.7 mph - N/A   Clear
5:00 PM 47 °F - 34 °F 49% 29.78 in 19 mi South 6.7 mph - -   Scattered Clouds
5:15 PM 46.4 °F 43.0 °F 33.8 °F 62% 29.77 in - South 6.7 mph - N/A   Clear
5:45 PM - - - N/A% - 6.2 mi South 8.9 mph - N/A   Overcast
6:00 PM 44 °F - 33 °F 55% 29.78 in 19 mi SSE 6.7 mph - -   Scattered Clouds
6:15 PM 42.8 °F 38.7 °F 32.0 °F 66% 29.77 in - SSE 6.7 mph - N/A   Clear
6:45 PM 41.0 °F 36.5 °F 32.0 °F 70% 29.74 in - SSE 6.7 mph - N/A   Clear
7:00 PM 41 °F - 32 °F 62% 29.78 in 16 mi SSE 6.7 mph - -   Clear
7:15 PM 39.2 °F 34.4 °F 32.0 °F 75% 29.74 in - SSE 6.7 mph - N/A   Clear
7:45 PM 39.2 °F 34.4 °F 32.0 °F 75% 29.74 in - SSE 6.7 mph - N/A   Clear
8:00 PM 39 °F - 31 °F 65% 29.76 in 11 mi SSE 6.7 mph - -   Clear
8:15 PM 37.4 °F 32.2 °F 30.2 °F 75% 29.74 in - SSE 6.7 mph - N/A   Clear
8:45 PM - - - N/A% - 6.2 mi South 8.9 mph - N/A   Overcast
9:00 PM 38 °F - 31 °F 66% 29.76 in 12 mi SSE 6.7 mph - -   Clear
9:15 PM 35.6 °F 31.8 °F 30.2 °F 81% 29.74 in - SSE 4.5 mph - N/A   Clear
9:45 PM 37.4 °F 33.9 °F 30.2 °F 75% 29.71 in - SSE 4.5 mph - N/A   Clear
10:00 PM 36 °F - 30 °F 71% 29.75 in 12 mi SSE 4.5 mph - -   Clear
10:15 PM 35.6 °F 30.0 °F 30.2 °F 81% 29.71 in - SSE 6.7 mph - N/A   Clear
10:45 PM 35.6 °F 30.0 °F 30.2 °F 81% 29.71 in - SSE 6.7 mph - N/A   Clear
11:00 PM 35 °F - 29 °F 73% 29.74 in 9 mi SSE 6.7 mph - -   Clear
11:15 PM 33.8 °F 27.9 °F 30.2 °F 87% 29.71 in - SSE 6.7 mph - N/A   Clear
11:45 PM - - - N/A% - 0.9 mi North - - N/A   Overcast